| time (UTC) | temp F | wind direction | speed MPH | gust MPH | rain 1hr in | rain 24hr in | rain mn in | humidity % | barometer mb |
| 20260507050044 | 48 | 244 | 3.0 | 13.0 | 0.00 | 0.00 | 0.00 | 55 | 1018.2 |
| 20260507044523 | 49 | 232 | 6.0 | 13.0 | 0.00 | 0.00 | 0.00 | 53 | 1018.0 |
| 20260507043019 | 49 | 173 | 4.0 | 11.0 | 0.00 | 0.00 | 0.00 | 53 | 1017.7 |
| 20260507041517 | 49 | 242 | 4.0 | 11.0 | 0.00 | 0.00 | 0.00 | 52 | 1017.5 |
| 20260507040022 | 49 | 202 | 1.0 | 14.0 | 0.00 | 0.00 | 0.00 | 53 | 1017.5 |
| 20260507034519 | 49 | 219 | 5.0 | 14.0 | 0.00 | 0.00 | 0.00 | 53 | 1017.4 |
| 20260507033021 | 49 | 243 | 6.0 | 15.0 | 0.00 | 0.00 | 0.00 | 52 | 1017.3 |
| 20260507031515 | 49 | 220 | 5.0 | 13.0 | 0.00 | 0.00 | 0.00 | 53 | 1017.2 |
| 20260507030011 | 48 | 230 | 4.0 | 13.0 | 0.00 | 0.00 | 0.00 | 55 | 1017.1 |
| 20260507024515 | 48 | 211 | 3.0 | 12.0 | 0.00 | 0.00 | 0.00 | 55 | 1017.2 |
| 20260507023010 | 48 | 216 | 2.0 | 10.0 | 0.00 | 0.00 | 0.00 | 56 | 1017.3 |
| 20260507021518 | 47 | 294 | 3.0 | 10.0 | 0.00 | 0.00 | 0.00 | 57 | 1017.3 |
| 20260507020010 | 47 | 284 | 3.0 | 12.0 | 0.00 | 0.00 | 0.00 | 57 | 1017.3 |
| 20260507014507 | 47 | 228 | 6.0 | 13.0 | 0.00 | 0.00 | 0.00 | 57 | 1017.3 |
| 20260507013008 | 47 | 220 | 6.0 | 13.0 | 0.00 | 0.00 | 0.00 | 57 | 1017.3 |
| 20260507011513 | 47 | 251 | 2.0 | 13.0 | 0.00 | 0.00 | 0.00 | 56 | 1017.6 |
| 20260507010007 | 46 | 240 | 5.0 | 14.0 | 0.00 | 0.00 | 0.00 | 55 | 1017.5 |
| 20260507004501 | 46 | 251 | 4.0 | 10.0 | 0.00 | 0.00 | 0.00 | 55 | 1017.5 |
| 20260507003058 | 46 | 231 | 2.0 | 12.0 | 0.00 | 0.00 | 0.00 | 56 | 1017.4 |
| 20260507001604 | 45 | 250 | 5.0 | 13.0 | 0.00 | 0.00 | 0.00 | 58 | 1017.1 |
| 20260507000057 | 44 | 239 | 1.0 | 13.0 | 0.00 | 0.00 | 0.00 | 63 | 1017.3 |
| 20260506234619 | 44 | 228 | 5.0 | 14.0 | 0.00 | 0.00 | 0.00 | 62 | 1016.8 |
| 20260506233053 | 44 | 249 | 4.0 | 16.0 | 0.00 | 0.00 | 0.00 | 63 | 1016.7 |
| 20260506231554 | 43 | 235 | 4.0 | 12.0 | 0.00 | 0.00 | 0.00 | 64 | 1017.1 |
| 20260506224551 | 43 | 232 | 4.0 | 13.0 | 0.00 | 0.00 | 0.00 | 66 | 1017.1 |
| 20260506223056 | 43 | 216 | 4.0 | 15.0 | 0.00 | 0.00 | 0.00 | 68 | 1016.9 |
| 20260506221548 | 42 | 287 | 4.0 | 17.0 | 0.00 | 0.00 | 0.00 | 69 | 1016.6 |
| 20260506220047 | 42 | 305 | 3.0 | 15.0 | 0.00 | 0.00 | 0.00 | 70 | 1016.1 |
| 20260506061523 | 58 | 251 | 3.0 | 10.0 | 0.00 | 0.01 | 0.01 | 63 | 1018.8 |